Tracking 17844 objects as of 25-August-2016
HD Live streaming from Space Station
objects crossing your sky now

SL-8 DEB

Track SL-8 DEB now!
10-day predictions


NORAD ID: 18545
Int'l Code: 1986-100C
Perigee: 883.2 km
Apogee: 904.5 km
Inclination: 82.9 °
Period: 102.7 minutes
Semi major axis: 7264 km
RCS: 0.0131 m2 (small)
Launch date: December 17, 1986
Source: Commonwealth of Independent States (former USSR) (CIS)
Launch site: PLESETSK MISSILE AND SPACE COMPLEX (PKMTR)

Note: This is SATELLITE DEBRIS
Your satellite tracking list
Your tracking list is empty





NASA's NSSDC Master Catalog

Two Line Element Set (TLE):
1 18545U 86100C   16238.23226943  .00000621  00000-0  39623-3 0  9994
2 18545  82.9257  50.6677 0014649 272.7046 212.1378 14.02040582502480
Source of the keplerian elements: AFSPC

N2YO: 543